Location: Unspecified
(0.0000°N, 0.0000°E)
Time: 11:10:18
(UTC+00:00)

Explorer 11/Cluster Stage 4 - Pass Details

Date: 04 November 2024
Orbit: 464 x 1202 km, 28.8° (Epoch: 06 December)

Event Time Altitude Azimuth Distance (km) Brightness Sun altitude
Rises 18:22:11 0° 266° (W) 3,954 12.1 -9.3°
Reaches altitude 10° 18:25:45 10° 250° (WSW) 3,071 11.2 -10.1°
Maximum altitude 18:31:17 21° 205° (SSW) 2,418 9.6 -11.5°
Drops below altitude 10° 18:36:54 10° 159° (SSE) 3,127 9.6 -12.8°
Sets 18:40:36 0° 144° (SE) 4,045 10.0 -13.7°
